Reflectivity
-20 -20 -20 -20 -20 -20 -20 -20 -20 -20 -20 -19 -10 -20 -20 -20 -20 -20 -20 -20 -20 -20 -20 -20 -20 -20 -20 -20 -20 -20 -20 -20 -20 -20 -20 -20 -20 -20 -20 -20 -20 -20 -20 -3 -18
-20 -20 -20 -20 -20 -20 -20 -20 -20 -20 -20 -18 -9 -20 -20 -20 -20 -20 -20 -20 -20 -20 -20 -20 -20 -20 -20 -20 -20 -20 -20 -20 -20 -20 -20 -20 -20 -20 -20 -20 12 6 4 1 7
-20 -20 -20 -20 -20 -20 -20 -20 -20 -20 -20 -20 -20 -20 -20 -20 -20 -20 -20 -20 -20 -20 -20 -20 -20 -20 -20 -20 -20 -20 -20 -20 -20 -20 -20 -20 -20 -20 -20 -20 -20 -19 4 16 -9
-20 -20 -20 -20 -20 -20 -20 -20 -20 -20 -20 -20 -20 -20 -20 -20 -20 -20 -20 -20 -20 -20 -20 -20 -20 -20 -20 -20 -20 -20 -20 -20 -20 -20 -20 -20 -20 -20 -20 -20 -20 -20 -20 -19 -3
-20 -20 -20 -20 -20 -20 -20 -20 -20 -20 -20 -20 -20 -20 -20 -20 -20 -20 -20 -20 -20 -20 -20 -20 -20 -20 -20 -20 -20 -20 -20 -20 -20 -20 -20 -20 -20 -20 -20 -20 -20 -20 1 9 -20
-20 -20 -20 -20 -20 -20 -20 -20 -20 -20 -20 -20 -20 -20 -20 -20 -20 -20 -20 -20 -20 -20 -20 -20 -20 -20 -20 -20 -20 -20 -20 -20 -20 -20 -20 -20 -20 -20 -20 -20 -20 -20 -16 11 -20
-20 -20 -20 -20 -20 -20 -20 -20 -20 -20 -20 -20 -20 -20 -20 -20 -20 -20 -20 -20 -20 -20 -20 -20 -20 -20 -20 -20 -20 -20 -20 -20 -20 -20 -20 -20 -20 -20 -20 -20 -20 -20 -20 -20 -20
-20 -20 -20 -20 -20 -20 -20 -20 -20 -20 -20 -20 -20 -20 -20 -20 -20 -20 -20 -20 -20 -20 -20 -20 -20 -20 -20 -20 -20 -20 -20 -20 -20 -20 -20 -20 -20 -20 -20 -20 -20 -20 -20 -20 -20
-20 -20 -20 -20 -20 -20 -20 -20 -20 -20 -20 -20 -20 -20 -20 -20 -20 -20 -20 -20 -20 -20 -20 -20 -20 -20 -20 -20 -20 -20 -20 -20 -20 -20 -20 -20 -20 -20 -20 -20 -20 -20 -20 -20 -20
-20 -20 -20 -20 -20 -20 -20 -20 -20 -20 -20 -20 -20 -20 -20 -20 -20 -20 -20 -20 -20 -20 -20 -20 -20 -20 -20 -20 -20 -20 -20 -20 -20 -20 -20 -20 -20 -20 -20 -20 -20 -20 -20 -20 -20
-20 -20 -20 -20 -20 -20 -20 -20 -20 -20 -20 -20 -20 -20 -20 -20 -20 -20 -20 -20 -20 -20 -20 -20 -20 -20 -20 -20 -20 -20 -20 -20 -20 -20 -20 -20 -20 -20 -20 -20 -20 -20 -20 -20 -20
-20 -20 -20 -20 -20 -20 -20 -20 -20 -20 -20 -20 -20 -20 -20 -20 -20 -20 -20 -20 -20 -20 -20 -20 -20 -20 -20 -20 -20 -20 -20 -20 -20 -20 -20 -20 -20 -20 -20 -20 -20 -20 -20 -20 -20
-20 -20 -20 -20 -20 -20 -20 -20 -20 -20 -20 -20 -20 -20 -20 -20 -20 -20 -20 -20 -20 -20 -20 -20 -20 -20 -20 -20 -20 -20 -20 -20 -20 -20 -20 -20 -20 -20 -20 -20 -20 -20 -20 -20 -20
-20 -20 -20 -20 -20 -20 -20 -20 -20 -20 -20 -20 -20 -20 -20 -20 -20 -20 -20 -20 -20 -20 -20 -20 -20 -20 -20 -20 -20 -20 -20 -20 -20 -20 -20 -20 -20 -20 -20 -20 -20 -20 -20 -20 -20
-20 -20 -20 -20 -20 -20 -20 -20 -20 -20 -20 -20 -20 -20 -20 -20 -20 -20 -20 -20 -20 -20 -20 -20 -20 -20 -20 -20 -20 -20 -20 -20 -20 -20 -20 -20 -20 -20 -20 -20 -20 -20 -20 -20 -20
-20 -20 -20 -20 -20 -20 -20 -20 -20 -20 -20 -20 -20 -20 -20 -20 -20 -20 -20 -20 -20 -20 -20 -20 -20 -20 -20 -20 -20 -20 -20 -20 -20 -20 -20 -20 -20 -20 -20 -20 -20 -20 -20 -20 -20
-20 -20 -20 -20 -20 -20 -20 -20 -20 -20 -20 -20 -20 -20 -20 -20 -20 -20 -20 -20 -20 -20 -20 -20 -20 -20 -20 -20 -20 -20 -20 -20 -20 -20 -20 -20 -20 -20 -20 -20 -20 -20 -20 -20 -20
-20 -20 -20 -20 -20 -20 -20 -20 -20 -20 -20 -20 -20 -20 -20 -20 -20 -20 -20 -20 -20 -20 -20 -20 -20 -20 -20 -20 -20 -20 -20 -20 -20 -20 -20 -20 -20 -20 -20 -20 -20 -20 -20 -20 -20
-20 -20 -20 -20 -20 -20 -20 -20 -20 -20 -20 -20 -20 -20 -20 -20 -20 -20 -20 -20 -20 -20 -20 -20 -20 -20 -20 -20 -20 -20 -20 -20 -20 -20 -20 -20 -20 -20 -20 -20 -20 -20 -20 -20 -20
-20 -20 -20 -20 -20 -20 -20 -20 -20 -20 -20 -20 -20 -20 -20 -20 -20 -20 -20 -20 -20 -20 -20 -20 -20 -20 -20 -20 -20 -20 -20 -20 -20 -20 -20 -20 -20 -20 -20 -20 -20 -20 -20 -20 -20
-20 -20 -20 -20 -20 -20 -20 -20 -20 -20 -20 -20 -20 -20 -20 -20 -20 -20 -20 -20 -20 -20 -20 -20 -20 -20 -20 -20 -20 -20 -20 -20 -20 -20 -20 -20 -20 -20 -20 -20 -20 -20 -20 -20 -20
-20 -20 -20 -20 -20 -20 -20 -20 -20 -20 -20 -20 -20 -20 -20 -20 -20 -20 -20 -20 -20 -20 -20 -20 -20 -20 -20 -20 -20 -20 -20 -20 -20 -20 -20 -20 -20 -20 -20 -20 -20 -20 -20 -20 -20
-20 -20 -20 -20 -20 -20 -20 -20 -20 -20 -20 -20 -20 -20 -20 -20 -20 -20 -20 -20 -20 -20 -20 -20 -20 -20 -20 -20 -20 -20 -20 -20 -20 -20 -20 -20 -20 -20 -20 -20 -20 -20 -20 -20 -20
-20 -20 -20 -20 -20 -20 -20 -20 -20 -20 -20 -20 -20 -20 -20 -20 -20 -20 -20 -20 -20 -20 -20 -20 -20 -20 -20 -20 -20 -20 -20 -20 -20 -20 -20 -20 -20 -20 -20 -20 -20 -20 -20 -20 -20
-20 -20 -20 -20 -20 -20 -20 -20 -20 -20 -20 -20 -20 -20 -20 -20 -20 -20 -20 -20 -20 -20 -20 -20 -20 -20 -20 -20 -20 -20 -20 -20 -20 -20 -20 -20 -20 -20 -20 -20 -20 -20 -20 -20 -20
-20 -20 -20 -20 -20 -20 -20 -20 -20 -20 -20 -20 -20 -20 -20 -20 -20 -20 -20 -20 -20 -20 -20 -20 -20 -20 -20 -20 -20 -20 -20 -20 -20 -20 -20 -20 -20 -20 -20 -20 -20 -20 -20 -20 -20
-20 -2 10 -20 -20 -20 -20 -20 -20 -20 -20 -20 -20 -20 -20 -20 -20 -20 -20 -20 -20 -20 -20 -20 -20 -20 -20 -20 -20 -20 -20 -20 -20 -20 -20 -20 -20 -20 -20 -20 -20 -20 -20 -20 -20
Wind_Speed
19 20 19 19 18 18 19 19 19 18 16 15 15 14 13 12 11 2 5 9 4 6 7 7 2 3 2 3 1 2 4 2 1 4 4 4 4 6 7 8 5 5 9 13 15
20 20 20 20 20 19 19 19 18 19 17 14 14 14 12 11 3 8 10 8 9 9 4 4 3 5 3 1 4 4 4 6 5 5 5 5 5 5 4 7 8 12 16 17 16
21 21 21 21 21 21 19 19 19 19 17 14 13 13 12 8 3 8 2 11 10 8 3 2 3 3 2 3 2 2 5 4 3 8 11 5 4 3 10 4 6 16 15 15 14
21 22 22 22 21 22 22 21 20 20 18 14 12 12 12 3 6 2 3 13 10 6 3 3 3 2 2 3 4 3 5 3 6 8 6 4 6 7 2 4 14 15 16 13 14
21 22 23 23 22 22 22 22 21 20 18 15 11 10 3 0 11 3 7 7 6 6 4 3 1 2 2 2 4 1 4 7 12 8 7 7 6 6 8 13 13 16 14 13 13
21 21 22 23 23 23 23 21 20 20 17 13 9 8 0 4 2 1 9 8 4 4 3 5 5 3 2 2 3 4 13 12 9 8 6 8 4 4 5 10 12 14 14 12 13
20 21 21 22 24 24 24 22 22 19 15 10 6 3 0 14 5 4 4 5 5 4 5 5 3 2 1 4 5 8 10 10 4 5 4 13 2 2 12 12 11 12 12 13 13
20 21 22 22 23 25 25 24 24 18 8 4 2 1 9 5 3 3 6 2 4 4 2 5 3 2 3 3 7 7 6 4 4 5 6 1 1 4 10 12 10 10 10 11 12
21 22 23 24 25 24 26 26 19 4 3 3 1 2 11 7 3 4 7 3 3 2 3 1 3 4 5 7 6 7 4 3 2 7 7 1 2 7 9 9 9 9 9 9 9
20 22 23 24 25 26 28 19 5 0 1 3 2 3 6 3 4 4 3 4 4 1 2 3 5 5 5 6 5 7 4 2 6 9 4 6 5 9 13 10 11 10 8 8 9
20 21 23 25 26 28 12 3 5 2 1 8 5 4 5 8 3 3 5 5 2 6 5 2 5 5 8 6 5 6 6 6 6 5 5 8 5 11 13 11 10 9 9 8 11
19 21 22 25 27 21 3 6 5 4 9 9 14 8 7 3 5 3 6 6 5 4 3 5 6 5 7 7 8 7 6 6 5 4 10 6 4 8 13 14 11 11 10 11 9
19 20 21 24 28 5 3 6 2 3 3 9 7 7 7 10 9 7 9 6 5 5 6 8 6 6 8 5 4 4 5 4 5 4 4 7 3 7 7 10 9 11 12 12 14
19 19 19 26 5 5 4 5 5 2 3 9 6 10 6 8 5 9 7 7 2 10 7 4 4 5 3 3 7 5 7 7 9 7 6 2 5 6 9 13 12 15 15 15 16
17 17 15 9 5 4 3 7 6 3 3 5 5 2 5 12 6 5 6 5 8 6 8 10 7 6 5 9 7 8 3 2 6 6 7 1 4 7 7 11 20 18 17 18 17
17 15 15 1 2 8 8 10 2 5 10 5 6 8 7 4 5 5 6 6 5 5 2 5 3 5 8 5 10 3 6 10 7 4 3 6 6 7 7 18 16 18 18 19 18
20 15 11 3 6 2 6 4 4 6 3 5 6 6 5 7 5 7 11 10 8 6 5 1 5 3 3 4 1 6 7 4 5 3 7 2 6 12 9 13 18 22 23 20 18
17 24 9 6 7 4 3 5 7 9 9 4 1 4 8 6 5 6 12 14 2 6 5 7 3 8 5 10 9 6 9 8 7 5 3 3 5 10 6 9 9 13 20 13 15
19 4 4 6 9 3 4 5 12 7 6 4 3 4 5 4 7 5 9 16 15 10 8 7 7 4 6 5 11 6 3 6 10 4 3 4 7 11 5 5 5 10 9 13 15
4 5 5 2 8 4 5 8 6 4 3 2 9 4 9 6 6 8 10 9 7 8 3 7 2 5 3 6 4 6 7 4 3 6 4 4 4 7 7 6 4 8 12 13 10
3 5 4 5 1 4 6 8 6 6 2 1 4 4 4 7 7 10 12 2 15 10 7 7 4 4 3 5 10 2 2 7 7 4 7 2 7 7 7 6 8 9 8 9 9
2 3 4 3 2 0 4 7 3 4 2 3 1 2 3 1 5 7 9 11 12 10 12 7 5 4 7 1 1 4 8 7 8 5 1 4 8 5 8 9 7 9 8 4 6
2 4 5 3 3 2 5 5 3 4 4 5 5 2 2 3 4 4 6 2 8 10 13 9 2 3 10 6 2 4 5 6 7 5 7 8 7 3 3 4 3 6 5 5 8
2 4 5 4 1 2 5 5 9 4 3 1 3 0 3 1 2 2 2 2 2 9 10 13 5 10 10 6 6 5 5 5 7 5 6 7 5 5 7 9 7 4 4 6 7
2 3 0 4 3 4 1 5 6 6 9 6 3 6 6 4 2 3 2 3 3 5 7 8 8 7 7 8 6 5 6 9 7 6 8 10 11 12 16 16 7 5 3 8 10
2 1 3 4 4 5 1 1 4 11 5 9 6 5 8 7 8 5 4 2 3 7 5 3 4 6 6 8 9 8 9 9 5 4 2 6 7 7 2 6 7 10 9 9 11
2 2 0 4 4 3 1 4 6 9 7 11 8 4 6 8 7 8 3 2 6 2 3 0 7 5 8 3 8 7 17 6 6 5 8 7 13 9 6 11 11 9 7 11 13
Wind_Direction
7 2 0 356 355 351 348 345 344 341 335 333 324 320 321 319 310 159 247 225 198 167 109 127 144 154 86 342 185 184 62 131 240 134 142 147 107 36 71 100 47 14 110 116 130
4 1 357 354 350 349 345 343 340 338 334 334 323 318 320 328 287 249 239 190 212 131 100 146 113 138 70 285 335 86 105 213 169 141 136 123 96 120 93 93 92 93 108 127 136
1 359 356 352 348 345 343 339 338 335 332 332 324 318 317 321 318 256 285 177 190 151 130 159 97 93 90 74 271 149 174 197 89 99 114 109 86 87 124 98 142 137 134 138 142
358 355 353 350 345 342 339 336 334 332 328 325 323 317 316 291 215 25 296 183 174 154 137 95 85 111 223 213 184 124 251 105 100 104 105 107 116 110 343 122 139 140 142 149 155
355 353 349 347 343 339 335 331 329 328 324 318 320 322 327 294 251 125 75 140 127 147 196 115 148 202 282 192 109 306 71 66 102 95 93 116 83 90 82 117 129 143 151 159 168
351 349 347 344 340 335 330 326 325 323 319 314 316 316 253 238 216 63 125 132 185 176 168 159 212 221 258 319 104 105 88 102 89 110 113 104 128 80 115 128 140 155 164 170 178
345 343 342 341 337 332 325 323 321 317 311 307 311 301 182 233 107 72 159 179 180 188 178 200 167 56 311 54 44 96 75 79 91 126 84 117 21 67 142 147 160 169 174 179 188
339 339 338 337 335 329 322 319 317 308 290 286 282 300 246 257 330 296 144 258 206 222 229 166 132 114 47 95 31 72 63 87 236 136 154 342 130 133 162 157 171 180 185 187 195
336 336 336 335 332 327 319 317 314 301 163 145 58 67 267 312 256 211 147 206 156 169 240 240 108 99 24 86 38 20 163 149 199 183 160 71 182 168 179 183 182 190 194 198 196
334 333 333 333 330 326 322 312 272 32 160 194 254 354 276 273 255 154 157 125 80 101 97 71 57 97 43 83 194 192 131 206 196 205 179 155 243 169 184 203 201 191 194 203 204
331 331 331 331 328 327 340 12 14 355 30 203 201 250 283 294 292 177 138 99 64 61 148 27 88 206 201 149 146 138 167 203 219 197 146 192 176 192 189 209 213 206 199 199 214
328 329 330 330 325 324 309 72 66 257 307 238 249 268 264 34 319 300 125 131 138 160 140 46 211 199 106 136 145 145 164 249 300 202 176 159 205 188 196 215 218 205 210 211 219
324 327 330 331 323 23 317 114 45 350 210 287 201 197 212 145 208 250 136 134 136 141 174 163 188 136 132 158 172 201 191 185 179 117 56 121 334 177 214 217 216 220 214 218 212
321 325 333 333 49 336 290 342 320 240 26 268 229 253 154 149 237 194 174 138 164 179 146 224 219 150 123 195 146 256 193 241 151 139 177 152 253 222 209 212 220 218 205 209 208
317 322 331 342 286 310 321 318 318 86 318 242 208 115 160 160 151 231 172 58 164 163 118 234 180 157 177 214 163 225 56 20 158 106 104 306 63 257 168 222 222 222 211 211 206
315 316 324 349 286 246 318 309 102 55 244 291 166 172 139 203 184 116 127 80 145 124 96 200 250 172 194 169 175 126 77 40 51 76 17 194 143 279 186 217 227 217 221 211 209
310 308 296 256 238 154 324 26 78 178 268 248 200 155 184 167 162 156 158 162 156 125 227 222 240 238 155 43 1 87 70 28 31 352 212 153 114 242 237 243 215 201 216 209 203
311 307 255 208 230 251 13 69 203 196 217 302 120 110 181 148 198 171 151 183 233 106 110 156 259 162 182 182 181 174 157 150 183 187 200 37 227 255 241 256 233 212 212 207 202
319 308 277 256 192 135 102 180 206 199 193 191 13 132 220 246 137 135 176 193 195 174 150 140 260 250 191 159 139 186 148 169 102 10 71 210 281 307 259 308 196 193 182 202 198
323 334 268 321 157 119 102 239 213 220 311 155 186 175 191 208 142 149 169 189 196 174 150 203 171 222 155 117 36 138 154 93 12 132 210 274 266 238 326 327 315 188 191 202 196
42 345 270 166 137 62 204 223 263 234 282 20 184 199 197 186 167 175 191 235 178 183 150 149 100 271 116 178 163 108 107 55 109 115 154 170 266 211 240 253 225 225 221 196 180
57 324 321 16 94 294 181 185 247 293 170 287 262 210 206 119 136 173 179 214 193 146 178 189 140 210 206 162 353 145 167 136 129 221 102 140 267 262 257 236 206 226 223 198 164
358 263 310 89 193 268 263 255 237 251 193 195 229 214 350 181 119 154 188 229 174 157 160 177 226 23 337 356 37 173 179 118 114 88 189 138 254 322 271 204 190 194 182 128 135
63 343 317 23 333 6 343 234 215 222 261 48 225 135 103 19 8 123 148 260 34 199 166 146 146 174 204 190 163 173 175 164 129 123 174 211 190 244 219 208 217 177 114 106 121
44 265 285 323 327 331 199 303 205 238 206 172 241 200 152 166 152 201 246 321 32 340 131 137 191 177 218 199 175 215 178 162 161 186 160 222 186 210 203 201 182 154 130 126 122
118 93 337 262 295 296 125 288 283 231 201 220 198 196 183 196 181 174 146 63 283 1 92 24 217 168 244 221 189 221 237 184 161 134 290 123 238 218 125 99 163 174 152 147 136
285 267 266 292 321 313 7 340 306 339 267 235 206 206 222 229 228 231 236 236 248 45 359 61 139 110 235 155 113 271 231 184 183 174 155 169 221 159 155 197 197 170 163 154 147